Lake Camanche Weather Center

Moon Phase Calendar



Lake Camanche Water Level
Online Cameras

 


      

Current Conditions in Camanche Village
7/24/2024 8:35:47 AM

83°F
Feels Like 83
Clear
Humidity
41%
Pressure
30"
Wind
3.8 mph (NW)
Dew Point
57°F
UV Index
3/10 (Moderate)
Visibility
6 mi

Hourly Forecast

Date & Time Wed, Jul 24
8:00 AM
Wed, Jul 24
9:00 AM
Wed, Jul 24
10:00 AM
Wed, Jul 24
11:00 AM
Wed, Jul 24
12:00 PM
Wed, Jul 24
1:00 PM
Wed, Jul 24
2:00 PM
Wed, Jul 24
3:00 PM
Wed, Jul 24
4:00 PM
Wed, Jul 24
5:00 PM
Wed, Jul 24
6:00 PM
Wed, Jul 24
7:00 PM
Wed, Jul 24
8:00 PM
Wed, Jul 24
9:00 PM
Wed, Jul 24
10:00 PM
Wed, Jul 24
11:00 PM
Thu, Jul 25
12:00 AM
Thu, Jul 25
1:00 AM
Thu, Jul 25
2:00 AM
Thu, Jul 25
3:00 AM
Thu, Jul 25
4:00 AM
Thu, Jul 25
5:00 AM
Thu, Jul 25
6:00 AM
Thu, Jul 25
7:00 AM
Thu, Jul 25
8:00 AM
Thu, Jul 25
9:00 AM
Thu, Jul 25
10:00 AM
Thu, Jul 25
11:00 AM
Thu, Jul 25
12:00 PM
Thu, Jul 25
1:00 PM
Thu, Jul 25
2:00 PM
Thu, Jul 25
3:00 PM
Thu, Jul 25
4:00 PM
Thu, Jul 25
5:00 PM
Thu, Jul 25
6:00 PM
Thu, Jul 25
7:00 PM
Thu, Jul 25
8:00 PM
Thu, Jul 25
9:00 PM
Thu, Jul 25
10:00 PM
Thu, Jul 25
11:00 PM
Fri, Jul 26
12:00 AM
Fri, Jul 26
1:00 AM
Fri, Jul 26
2:00 AM
Fri, Jul 26
3:00 AM
Fri, Jul 26
4:00 AM
Fri, Jul 26
5:00 AM
Fri, Jul 26
6:00 AM
Fri, Jul 26
7:00 AM
Condition
Rain

Clear

Clear

Clear

Clear

Clear

Clear

Clear

Clear

Clear

Clear

Clear

Clear

Clear

Clear

Clear

Clear

Clear

Clear

Clear

Clear

Clear

Clear

Clear

Clear

Clear

Clear

Clear

Clear

Clear

Clear

Clear

Clear

Clear

Clear

Clear

Clear

Clear

Clear

Clear

Clear

Clear

Clear

Clear

Clear

Clear

Clear

Clear
Temperature 82°F83°F84°F88°F93°F100°F108°F109°F109°F106°F101°F96°F89°F82°F80°F79°F78°F78°F77°F76°F75°F73°F72°F74°F80°F86°F91°F95°F99°F102°F105°F106°F106°F104°F101°F96°F87°F79°F77°F75°F74°F73°F71°F70°F68°F66°F64°F66°F
Feels Like 82°F83°F83°F86°F91°F98°F105°F107°F105°F103°F98°F93°F86°F80°F80°F79°F77°F77°F76°F75°F73°F72°F70°F73°F79°F83°F87°F92°F96°F99°F101°F101°F100°F99°F96°F91°F83°F79°F76°F74°F72°F71°F69°F68°F66°F64°F62°F64°F
Cloudiness 3%3%3%3%5%6%7%7%7%7%5%5%5%5%6%6%5%3%3%3%4%4%0%0%0%0%0%0%0%0%0%0%0%0%0%0%0%0%0%0%0%0%0%0%0%0%0%0%
Visibility 6 mi6 mi6 mi6 mi6 mi6 mi6 mi6 mi6 mi6 mi6 mi6 mi6 mi6 mi6 mi6 mi6 mi6 mi6 mi6 mi6 mi6 mi6 mi6 mi6 mi6 mi6 mi6 mi6 mi6 mi6 mi6 mi6 mi6 mi6 mi6 mi6 mi6 mi6 mi6 mi6 mi6 mi6 mi6 mi6 mi6 mi6 mi6 mi
Precipitation 100%80%80%80%0%0%0%0%0%0%0%0%0%0%0%0%0%0%0%0%0%0%0%0%0%0%0%0%0%0%0%0%0%0%0%0%0%0%0%0%0%0%0%0%0%0%0%0%
Humidity 42%41%38%33%27%21%15%14%14%16%19%21%25%29%31%31%31%31%31%31%33%35%36%36%29%24%21%19%18%17%14%11%10%10%10%12%19%25%27%27%27%27%28%29%31%34%37%38%
Dew Point 57°F57°F56°F55°F54°F53°F50°F50°F50°F50°F51°F50°F48°F46°F46°F46°F45°F45°F44°F44°F43°F43°F44°F45°F45°F45°F46°F47°F49°F49°F46°F41°F39°F37°F34°F36°F39°F40°F40°F39°F38°F37°F36°F36°F36°F37°F38°F39°F
Pressure 30"30"30"30"29.97"29.94"29.91"29.88"29.85"29.85"29.88"29.91"29.94"29.94"29.97"29.97"29.97"29.97"29.97"29.97"29.97"29.97"29.97"30"30"30"30"29.97"29.97"29.94"29.91"29.88"29.88"29.85"29.85"29.85"29.88"29.91"29.91"29.91"29.91"29.88"29.88"29.88"29.85"29.85"29.85"29.88"
Wind Speed 4.2 mph3.8 mph3.8 mph5 mph5.1 mph5.6 mph6.9 mph10.1 mph12.5 mph13.4 mph12.9 mph10.1 mph7.3 mph4.5 mph4.4 mph4.3 mph4.5 mph4.2 mph4.4 mph4.6 mph4.5 mph4 mph3.7 mph3 mph2.2 mph3.8 mph4.6 mph4.7 mph5.1 mph6.1 mph7.8 mph8.9 mph10.3 mph11 mph11.6 mph9.9 mph6.1 mph3.9 mph4.7 mph4.5 mph4.2 mph3.9 mph2.9 mph2.7 mph3.3 mph4 mph4.4 mph4.3 mph
Wind
Direction
337°
NNW
324°
NW
316°
NW
302°
WNW
281°
W
271°
W
276°
W
283°
WNW
285°
WNW
281°
W
284°
WNW
286°
WNW
299°
WNW
339°
NNW
29°
NNE
38°
NE
40°
NE
33°
NNE
23°
NNE

N
351°
N
356°
N
350°
N
343°
NNW
337°
NNW
286°
WNW
276°
W
262°
W
259°
W
263°
W
274°
W
280°
W
284°
WNW
280°
W
278°
W
283°
WNW
295°
WNW

N
43°
NE
45°
NE
44°
NE
49°
NE
37°
NE
14°
NNE
354°
N
347°
NNW
349°
N
347°
NNW

Daily Forecast

Date High Low Precip. Humidity
Today
Jul 24

Rain
109 °F
77 °F
100%
21%
Thursday
Jul 25

Clear
106 °F
72 °F
0%
17%
Friday
Jul 26

Clear
100 °F
59 °F
0%
12%
Saturday
Jul 27

Clear
93 °F
52 °F
0%
19%
Sunday
Jul 28

Clear
94 °F
53 °F
0%
20%
Monday
Jul 29

Clear
95 °F
53 °F
0%
18%
Tuesday
Jul 30

Clear
94 °F
61 °F
0%
27%
Wednesday
Jul 31

Clear
98 °F
62 °F
0%
20%
Thursday
Aug 1

Clear
103 °F
62 °F
0%
15%
Friday
Aug 2

Clear
104 °F
63 °F
0%
15%
Saturday
Aug 3

Clear
104 °F
62 °F
0%
14%
Sunday
Aug 4

Clear
105 °F
63 °F
0%
9%
Monday
Aug 5

Clear
108 °F
64 °F
0%
9%
Tuesday
Aug 6

Clouds
109 °F
71 °F
0%
9%
Wednesday
Aug 7

Clear
111 °F
73 °F
0%
9%
Thursday
Aug 8

Clear
110 °F
72 °F
0%
7%

Temperature 8-14 Day Outlook



Precipitation 8-14 Day Outlook






About Us
Contact Us
Site Map
Search Site
Advertise With Us
   
Camanche.USLakes.info
THE LAKE CAMANCHE WEBSITE

Copyright 2024, Lakes Online
Privacy    |    Legal